Wind_Speed
6 7 7 7 8 8 8 9 10 10 11 11 12 12 12 12 13 13 13 13 14 14 14 14 15 15 16 16 16 18 19 20 20 21 22 23 23 23
8 9 9 9 9 9 10 11 11 12 12 13 14 13 13 13 14 14 15 15 15 15 16 16 16 17 17 18 18 19 19 20 21 22 23 24 25 25
10 10 11 11 11 12 12 13 14 14 15 14 15 15 15 15 16 16 16 17 17 17 18 18 19 19 19 20 20 21 22 22 23 23 24 25 26 27
11 12 12 13 14 15 15 15 16 16 17 16 16 16 17 18 18 18 19 19 19 20 20 21 21 21 22 22 22 23 23 23 24 25 25 26 27 29
13 14 14 15 15 16 17 17 17 18 18 18 18 19 19 19 19 20 21 21 22 22 22 22 22 22 23 23 23 24 25 25 26 27 28 28 29 30
15 16 16 17 17 17 18 18 18 19 19 19 20 20 21 22 22 22 23 23 24 24 24 25 25 25 25 25 26 27 27 28 28 29 29 30 31 31
18 18 18 18 18 18 19 19 20 20 21 21 21 22 23 24 24 25 25 25 26 26 27 27 27 27 28 28 29 29 29 30 31 31 32 32 33 34
19 19 20 20 19 19 20 21 21 22 22 22 23 23 24 25 26 27 27 27 28 28 29 29 30 31 31 32 32 32 33 33 34 34 35 36 36 37
21 21 21 21 21 21 22 22 23 23 24 24 25 25 26 27 28 29 29 30 30 30 31 31 33 34 35 35 35 36 36 37 37 38 38 39 40 40
22 22 22 22 22 23 24 24 24 25 25 26 26 27 28 29 30 31 32 32 33 34 34 34 35 36 37 38 39 39 40 40 41 42 42 42 43 43
22 22 22 23 23 24 25 25 26 27 27 28 28 29 31 32 33 33 34 35 36 36 37 37 38 38 39 40 41 42 43 44 44 45 45 45 45 45
23 23 24 24 25 26 26 27 28 29 30 30 31 32 33 34 35 36 37 38 38 39 39 40 40 41 41 42 43 44 45 46 47 47 47 47 47 47
24 24 25 26 27 28 28 29 30 31 31 32 33 34 35 36 37 38 38 39 40 41 42 43 43 44 44 44 44 46 47 48 48 49 49 49 49 49
25 26 26 28 29 30 30 31 32 32 33 34 35 36 37 37 38 39 39 41 42 43 44 45 45 46 47 47 47 47 48 49 50 50 51 50 51 51
26 27 28 29 30 31 32 32 33 34 35 36 37 37 37 38 39 40 41 42 43 45 46 47 48 48 49 49 49 49 49 50 51 51 51 52 52 53
28 29 29 30 31 32 33 34 35 36 37 37 37 37 38 39 40 41 43 44 45 45 46 47 48 49 50 50 51 51 51 51 51 51 52 52 53 53
30 30 30 31 32 33 34 35 36 37 37 38 38 39 40 41 42 43 44 45 45 45 46 47 49 50 51 52 52 52 52 51 52 52 52 52 52 52
29 30 31 32 33 34 35 36 37 38 38 38 39 40 41 41 42 43 44 45 45 46 47 48 49 50 51 51 52 52 52 52 53 53 53 53 52 52
30 31 33 34 35 36 37 38 38 39 39 40 40 41 42 43 43 44 44 45 47 48 48 50 51 52 52 51 51 53 54 54 54 54 54 54 53 53
32 32 34 35 36 37 38 39 40 40 41 42 42 43 44 44 45 46 46 47 48 49 50 51 52 53 53 52 51 51 53 54 54 54 54 54 53 53
33 33 35 36 37 38 39 40 41 42 42 42 43 43 44 45 46 46 48 49 50 50 51 52 53 53 53 53 52 52 52 53 54 53 52 52 51 51
34 35 36 37 38 39 40 41 42 43 43 43 44 44 45 46 47 48 49 50 50 51 52 52 53 53 53 52 52 51 51 51 51 51 50 50 50 50
36 37 38 39 40 40 41 42 43 43 43 44 45 45 46 47 48 49 50 50 51 51 52 52 52 52 52 52 51 51 50 50 49 48 48 49 51 51
Wind_Direction
298 294 293 292 288 287 286 286 285 282 282 284 283 281 282 284 285 286 287 288 287 285 285 283 281 279 279 278 278 278 277 275 274 274 274 275 276 276
295 291 289 290 291 289 286 285 284 284 285 286 285 284 284 283 284 285 287 289 289 287 284 283 282 280 281 282 281 281 281 280 279 277 277 277 278 277
295 294 289 287 287 287 287 285 285 285 286 285 285 285 284 284 285 285 286 287 287 285 285 284 284 283 283 284 286 285 284 284 283 282 280 279 279 278
295 294 291 288 287 287 288 287 286 286 286 286 285 284 284 284 285 284 285 285 286 285 286 285 284 285 285 285 285 285 285 284 284 283 283 282 281 280
295 295 294 293 291 290 289 288 287 287 286 285 286 285 285 285 285 286 286 286 286 286 287 288 286 287 287 286 286 285 285 285 284 284 283 284 283 282
295 294 292 291 290 289 288 287 288 288 288 287 286 286 286 286 286 286 286 287 287 288 287 288 287 286 286 286 286 285 285 285 285 284 284 284 284 284
293 294 294 293 292 291 290 289 288 288 288 287 286 286 286 287 287 287 287 288 288 289 289 288 288 287 286 286 286 286 285 285 285 284 284 284 284 284
294 295 294 293 292 291 290 289 289 288 288 287 287 286 287 287 288 288 288 288 288 288 288 288 288 288 287 287 287 286 286 286 286 285 286 285 285 284
294 294 293 292 291 291 291 291 290 288 287 287 287 287 287 287 288 288 288 288 288 288 287 288 287 288 288 288 288 287 287 287 287 287 286 286 286 285
295 295 295 294 293 293 292 291 290 288 287 287 287 288 288 288 289 288 288 288 287 287 287 287 287 287 288 288 288 287 287 287 287 287 287 287 286 286
296 296 295 294 294 294 293 292 291 290 289 288 288 289 289 290 289 289 289 288 288 288 288 288 288 288 288 289 288 288 288 287 287 287 287 287 287 286
295 295 295 294 294 294 294 293 292 292 290 289 290 290 290 291 290 290 290 290 289 289 289 289 289 289 289 289 289 289 288 288 287 287 287 286 286 286
294 295 295 295 296 295 294 294 294 292 291 291 291 291 292 292 292 292 292 291 291 291 291 290 290 290 290 290 289 290 289 288 288 287 287 286 286 286
295 296 297 298 297 296 296 295 295 294 293 293 293 292 292 292 292 293 293 293 293 293 293 293 292 291 291 290 290 290 290 289 288 288 287 287 287 287
295 295 296 298 298 297 297 296 295 294 295 295 294 293 293 292 293 294 295 295 295 295 295 294 293 293 292 292 291 290 289 289 289 288 287 287 286 286
295 297 298 298 298 297 297 296 296 296 296 296 295 294 294 294 294 294 295 295 295 295 295 294 294 294 294 293 293 292 291 290 289 288 288 287 287 286
296 297 297 298 298 298 298 298 298 298 298 297 296 296 296 296 295 295 295 296 296 295 295 295 295 296 296 295 294 293 292 291 290 289 288 287 287 286
297 297 297 298 298 299 299 299 300 299 299 298 298 298 298 298 297 297 297 297 296 296 296 296 296 296 296 296 296 294 293 292 291 290 289 288 287 287
297 298 298 299 299 300 300 300 300 300 299 299 299 299 299 299 299 299 299 298 298 298 298 297 297 296 296 296 295 295 294 292 291 291 290 290 289 288
298 299 300 300 301 301 301 302 301 301 301 300 300 299 299 299 299 299 299 299 299 299 299 299 299 298 298 297 296 296 296 295 293 292 291 290 290 289
299 299 301 301 302 302 303 304 303 302 302 302 301 301 300 300 300 300 300 300 300 301 300 300 300 300 299 299 299 298 298 297 297 295 293 292 291 290
300 301 302 302 302 303 304 304 304 303 302 302 302 302 301 301 301 301 301 301 301 301 301 300 300 300 299 300 300 299 299 299 298 297 296 295 294 292
300 301 302 303 304 304 304 305 304 303 303 302 302 302 302 302 302 302 303 303 303 302 302 302 301 301 301 300 301 300 300 299 298 297 297 297 296 295
Height
5858 5858 5857 5857 5856 5856 5855 5855 5855 5854 5854 5854 5853 5853 5852 5852 5851 5850 5850 5849 5848 5847 5846 5845 5845 5844 5843 5842 5841 5841 5840 5840 5840 5840 5839 5839 5838 5838
5857 5856 5855 5855 5854 5854 5853 5853 5852 5852 5851 5851 5850 5849 5849 5848 5848 5847 5846 5845 5844 5843 5842 5842 5841 5840 5839 5838 5837 5836 5835 5835 5834 5834 5834 5833 5832 5832
5855 5854 5853 5852 5852 5851 5850 5850 5849 5849 5848 5848 5847 5846 5845 5845 5844 5843 5842 5841 5840 5839 5838 5837 5836 5835 5835 5834 5833 5832 5831 5830 5829 5828 5827 5827 5826 5825
5852 5851 5850 5849 5848 5848 5847 5846 5845 5845 5844 5844 5843 5842 5842 5841 5840 5839 5838 5837 5836 5835 5834 5832 5831 5830 5829 5828 5827 5826 5825 5824 5823 5822 5821 5820 5818 5817
5849 5848 5847 5846 5845 5844 5843 5842 5841 5840 5840 5839 5838 5837 5837 5836 5835 5834 5833 5832 5831 5829 5828 5827 5826 5824 5823 5822 5821 5819 5818 5817 5816 5814 5813 5812 5810 5809
5846 5844 5843 5842 5841 5839 5838 5837 5836 5835 5835 5834 5833 5832 5831 5830 5829 5828 5827 5826 5825 5823 5822 5820 5819 5818 5817 5815 5814 5812 5811 5809 5808 5806 5805 5804 5802 5801
5842 5840 5839 5837 5836 5834 5833 5832 5831 5830 5829 5828 5827 5826 5825 5824 5823 5822 5821 5819 5818 5816 5815 5813 5812 5810 5809 5807 5806 5804 5802 5801 5799 5797 5796 5794 5793 5791
5837 5835 5833 5832 5830 5829 5827 5826 5825 5824 5823 5822 5821 5820 5819 5818 5816 5815 5814 5813 5811 5810 5807 5806 5804 5802 5800 5799 5797 5795 5793 5791 5790 5788 5786 5784 5783 5781
5831 5830 5828 5826 5824 5823 5821 5820 5819 5817 5817 5816 5815 5813 5812 5811 5809 5808 5806 5804 5803 5801 5799 5798 5795 5793 5791 5789 5787 5785 5783 5781 5779 5777 5775 5773 5771 5769
5826 5824 5822 5820 5818 5817 5815 5814 5812 5811 5810 5809 5807 5806 5804 5802 5801 5799 5797 5796 5794 5791 5789 5788 5786 5784 5781 5778 5776 5774 5771 5769 5767 5765 5762 5760 5758 5755
5820 5818 5816 5814 5813 5811 5809 5807 5805 5804 5802 5801 5799 5797 5795 5794 5792 5790 5788 5786 5784 5781 5779 5777 5775 5773 5771 5768 5764 5761 5758 5756 5753 5751 5748 5746 5743 5741
5815 5813 5810 5808 5806 5804 5802 5800 5798 5796 5794 5792 5790 5788 5786 5784 5782 5779 5777 5775 5772 5770 5768 5765 5763 5760 5759 5756 5752 5749 5745 5742 5739 5737 5734 5731 5728 5726
5808 5806 5804 5802 5799 5797 5795 5793 5791 5788 5786 5784 5782 5779 5777 5774 5771 5768 5766 5763 5760 5758 5755 5752 5749 5746 5744 5743 5740 5735 5731 5728 5724 5721 5718 5715 5712 5710
5802 5800 5797 5795 5792 5790 5787 5785 5782 5780 5777 5775 5772 5770 5767 5764 5761 5758 5754 5751 5748 5745 5741 5738 5735 5732 5729 5727 5725 5721 5716 5712 5709 5705 5702 5699 5696 5693
5795 5793 5790 5787 5785 5782 5779 5776 5773 5771 5768 5765 5762 5759 5756 5753 5750 5747 5743 5739 5736 5732 5728 5724 5721 5717 5714 5711 5708 5705 5701 5697 5692 5689 5686 5682 5679 5676
5788 5785 5782 5779 5776 5773 5771 5768 5764 5761 5758 5755 5752 5748 5745 5742 5738 5735 5731 5727 5724 5720 5715 5710 5706 5702 5698 5694 5690 5687 5683 5680 5676 5672 5668 5665 5661 5657
5780 5777 5774 5771 5768 5765 5762 5758 5755 5751 5748 5744 5741 5738 5734 5730 5726 5722 5718 5714 5710 5706 5702 5697 5691 5687 5682 5678 5674 5670 5666 5662 5658 5654 5651 5649 5645 5640
5772 5769 5766 5763 5759 5756 5753 5749 5745 5742 5738 5734 5730 5726 5722 5718 5714 5710 5705 5701 5697 5693 5688 5683 5678 5673 5669 5663 5658 5653 5649 5645 5641 5637 5633 5630 5628 5624
5763 5760 5757 5754 5750 5747 5743 5739 5735 5731 5727 5723 5719 5715 5710 5706 5702 5697 5693 5688 5684 5679 5674 5668 5663 5658 5653 5650 5645 5636 5631 5627 5623 5619 5615 5611 5609 5606
5755 5752 5748 5745 5741 5737 5733 5729 5725 5721 5716 5712 5707 5703 5698 5694 5689 5685 5680 5675 5670 5665 5659 5653 5647 5641 5636 5632 5628 5622 5614 5609 5605 5601 5597 5593 5590 5586
5746 5742 5739 5735 5731 5727 5723 5718 5714 5709 5705 5700 5695 5691 5686 5681 5676 5671 5666 5661 5656 5650 5644 5638 5632 5625 5619 5615 5610 5606 5599 5592 5587 5583 5579 5575 5572 5569
5737 5733 5729 5725 5721 5717 5712 5708 5703 5698 5693 5688 5683 5679 5673 5668 5663 5658 5652 5647 5641 5635 5629 5623 5617 5610 5604 5599 5594 5589 5584 5578 5572 5566 5561 5557 5553 5551
5727 5723 5719 5715 5711 5706 5701 5696 5691 5686 5681 5676 5671 5666 5661 5655 5650 5644 5638 5632 5626 5620 5614 5608 5602 5595 5589 5583 5578 5573 5568 5563 5558 5553 5548 5542 5537 5534